Waarnemingen

Advertentie
Mijn weer
Trier-Petrisberg, Duitsland (10609): temperatuur & dauwpunt: 15.01.2017 18:00:00 - 21.01.2017 18:00:00 (CET)Trier-Petrisberg, Duitsland (10609): temperatuur 5cm & temperatuur -5cm: 15.01.2017 18:00:00 - 21.01.2017 18:00:00 (CET)Trier-Petrisberg, Duitsland (10609): temperatuur -20cm & temperatuur -100cm: 15.01.2017 18:00:00 - 21.01.2017 18:00:00 (CET)Trier-Petrisberg, Duitsland (10609): windsnelheid & windstoten: 15.01.2017 18:00:00 - 21.01.2017 18:00:00 (CET)Trier-Petrisberg, Duitsland (10609): windrichting: 15.01.2017 18:00:00 - 21.01.2017 18:00:00 (CET)Trier-Petrisberg, Duitsland (10609): luchtdruk: 15.01.2017 18:00:00 - 21.01.2017 18:00:00 (CET)Trier-Petrisberg, Duitsland (10609): zicht: 15.01.2017 18:00:00 - 21.01.2017 18:00:00 (CET)Trier-Petrisberg, Duitsland (10609): Zonneschijnduur: 15.01.2017 18:00:00 - 21.01.2017 18:00:00 (CET)Trier-Petrisberg, Duitsland (10609): neerslag: 15.01.2017 18:00:00 - 21.01.2017 18:00:00 (CET)
Datum & Tijd tt [°C] td [°C] tt 5cm [°C] tt -5cm [°C] tt -20cm [°C] tt -100cm [°C] ff [km/u] ff [kn] fx [km/u] fx [kn] dd ppp [hPa] vv [km] sd [min] rr [mm]
21.01.2017 18:00:00 -0,8 -6,9 -5,4 -0,1 0,1 3,5 6 4 13 7 NO 1028,8 16 7 0,0
21.01.2017 17:00:00 1,1 -7,3 -2,2 -0,1 0,1 3,5 8 4 12 6 NNO 1028,5 18 60 0,0
21.01.2017 16:00:00 2,3 -7,4 3,1 0,1 0,1 3,5 4 2 9 5 NO 1028,3 22 60 0,0
21.01.2017 15:00:00 2,1 -7,9 6,2 0,9 0,0 3,5 7 4 13 7 NO 1028,5 20 60 0,0
21.01.2017 14:00:00 1,5 -7,7 4,9 0,5 0,0 3,5 6 3 12 7 NNO 1029,2 19 60 0,0
21.01.2017 13:00:00 -0,2 -8,1 2,5 -0,3 0,0 3,5 4 2 8 5 NW 1030,1 22 60 0,0
21.01.2017 12:00:00 -1,9 -8,5 2,3 -1,1 0,0 3,5 6 3 9 5 NNO 1030,8 23 60 0,0
21.01.2017 11:00:00 -3,5 -8,5 -1,5 -2,1 0,1 3,5 4 2 13 7 N 1031,5 23 60 0,0
21.01.2017 10:00:00 -4,8 -8,3 -6,8 -4,1 0,1 3,5 10 6 13 7 NNO 1031,6 25 60 0,0
21.01.2017 09:00:00 -7,4 -9,1 -10,1 -4,5 0,1 3,5 0 0 6 4 N 1031,8 17 14 0,0
21.01.2017 08:00:00 -8,0 -9,6 -10,2 -4,4 0,1 3,5 5 3 10 5 NW 1031,7 18 0 0,0
21.01.2017 07:00:00 -7,1 -9,9 -10,5 -4,3 0,1 3,5 4 2 16 9 ONO 1031,4 23 0 0,0
21.01.2017 06:00:00 -6,3 -9,3 -9,8 -4,0 0,2 3,5 8 4 20 11 NO 1031,3 24 0 0,0
21.01.2017 05:00:00 -5,0 -8,6 -7,3 -3,8 0,2 3,5 13 7 19 11 NNO 1031,3 24 0 0,0
21.01.2017 04:00:00 -5,5 -9,4 -8,6 -3,5 0,2 3,5 9 5 16 9 NNO 1031,5 23 0 0,0
21.01.2017 03:00:00 -5,2 -9,2 -7,7 -3,3 0,2 3,5 11 6 14 8 NNO 1031,7 25 0 0,0
21.01.2017 02:00:00 -4,6 -9,6 -6,9 -2,9 0,3 3,6 16 8 24 13 NO 1031,6 27 0 0,0
21.01.2017 01:00:00 -3,8 -9,9 -6,3 -2,7 0,3 3,6 18 10 25 13 NNO 1031,9 28 0 0,0
21.01.2017 00:00:00 -3,5 -10,1 -5,8 -2,4 0,3 3,6 17 9 23 12 NNO 1032,2 27 0 0,0
20.01.2017 23:00:00 -3,2 -10,5 -6,1 -2,0 0,3 3,6 15 8 19 11 NO 1032,4 30 0 0,0
20.01.2017 22:00:00 -2,5 -10,9 -5,6 -1,6 0,3 3,6 16 9 21 12 NO 1032,5 32 0 0,0
20.01.2017 21:00:00 -2,3 -10,6 -4,5 -1,0 0,3 3,6 15 8 21 11 NO 1032,4 28 0 0,0
20.01.2017 20:00:00 -1,7 -10,7 -3,6 -0,5 0,3 3,6 16 9 27 15 NO 1032,3 32 0 0,0
20.01.2017 19:00:00 -1,3 -11,0 -3,4 -0,2 0,2 3,6 18 10 34 18 NO 1032,5 36 0 0,0
20.01.2017 18:00:00 -0,5 -10,6 -1,8 -0,2 0,2 3,6 25 13 35 19 NO 1032,3 38 12 0,0
20.01.2017 17:00:00 0,4 -10,2 -0,8 -0,1 0,2 3,6 21 12 34 19 NO 1032,4 41 60 0,0
20.01.2017 16:00:00 1,5 -9,9 1,9 -0,1 0,2 3,6 24 13 36 19 NNO 1032,1 36 60 0,0
20.01.2017 15:00:00 1,5 -9,8 3,6 0,3 0,2 3,6 24 13 37 20 NNO 1032,1 27 60 0,0
20.01.2017 14:00:00 1,3 -9,6 4,6 0,0 0,2 3,6 18 10 35 19 NNO 1032,6 30 60 0,0
20.01.2017 13:00:00 0,1 -10,0 2,6 -0,6 0,2 3,7 25 14 39 21 NNO 1033,2 20 60 0,0
20.01.2017 12:00:00 -1,7 -10,7 0,3 -1,2 0,2 3,7 25 14 36 19 NNO 1034,1 22 60 0,0
20.01.2017 11:00:00 -3,7 -10,5 -2,5 -2,2 0,2 3,7 26 14 34 18 NNO 1034,9 26 60 0,0
20.01.2017 10:00:00 -5,4 -10,7 -6,1 -3,9 0,3 3,7 20 11 27 15 NNO 1035,2 20 60 0,0
20.01.2017 09:00:00 -6,4 -10,6 -7,6 -4,2 0,3 3,7 20 11 28 15 NNO 1035,2 20 14 0,0
20.01.2017 08:00:00 -6,6 -10,4 -7,9 -4,1 0,3 3,7 19 11 29 16 NNO 1035,2 21 0 0,0
20.01.2017 07:00:00 -6,2 -10,2 -7,4 -4,0 0,3 3,7 21 11 31 17 NNO 1035,0 21 0 0,0
20.01.2017 06:00:00 -6,2 -10,0 -7,3 -3,9 0,3 3,7 25 13 32 17 NNO 1034,9 19 0 0,0
20.01.2017 05:00:00 -6,0 -9,7 -7,6 -3,7 0,4 3,7 18 10 24 13 NNO 1035,1 18 0 0,0
20.01.2017 04:00:00 -5,9 -9,4 -7,8 -3,5 0,4 3,7 16 9 23 13 NO 1035,1 18 0 0,0
20.01.2017 03:00:00 -5,5 -9,3 -6,6 -3,4 0,4 3,7 18 10 20 11 NNO 1035,2 17 0 0,0
20.01.2017 02:00:00 -5,4 -9,0 -6,7 -3,2 0,4 3,7 15 8 21 11 NNO 1035,3 16 0 0,0
20.01.2017 01:00:00 -5,3 -8,9 -7,0 -2,9 0,4 3,7 11 6 19 11 NNO 1035,6 15 0 0,0
20.01.2017 00:00:00 -4,9 -8,7 -6,2 -2,6 0,5 3,7 16 9 25 13 NNO 1035,9 15 0 0,0
19.01.2017 23:00:00 -4,5 -8,6 -5,7 -2,3 0,5 3,7 16 9 22 12 NNO 1036,1 16 0 0,0
19.01.2017 22:00:00 -3,9 -8,5 -5,7 -1,8 0,5 3,8 15 8 29 16 NNO 1036,1 17 0 0,0
19.01.2017 21:00:00 -3,6 -8,3 -5,2 -1,3 0,5 3,8 15 8 25 13 NNO 1036,1 16 0 0,0
19.01.2017 20:00:00 -3,6 -7,9 -5,6 -0,7 0,5 3,8 13 7 23 12 N 1036,0 15 0 0,0
19.01.2017 19:00:00 -3,0 -7,8 -4,7 -0,3 0,5 3,8 12 6 19 10 NNO 1035,9 17 0 0,0
19.01.2017 18:00:00 -2,3 -7,7 -4,2 -0,2 0,5 3,8 9 5 24 13 NNO 1035,7 20 8 0,0
19.01.2017 17:00:00 -1,3 -7,9 -2,5 -0,1 0,4 3,8 19 10 29 15 NNO 1035,4 22 60 0,0
19.01.2017 16:00:00 -0,5 -8,2 0,2 -0,1 0,4 3,8 18 10 27 15 NNO 1035,2 23 60 0,0
19.01.2017 15:00:00 0,1 -7,7 2,8 0,1 0,4 3,8 14 8 31 17 NNO 1035,4 16 60 0,0
19.01.2017 14:00:00 -0,6 -8,3 2,1 -0,1 0,4 3,8 18 10 32 17 NNO 1035,6 17 60 0,0
19.01.2017 13:00:00 -1,3 -8,2 1,5 -0,5 0,4 3,8 19 10 33 18 NNO 1036,2 21 60 0,0
19.01.2017 12:00:00 -2,7 -8,4 -0,3 -1,1 0,5 3,8 13 7 21 11 N 1036,8 12 60 0,0
19.01.2017 11:00:00 -4,8 -9,0 -3,5 -2,0 0,5 3,8 10 5 19 11 N 1037,3 12 60 0,0
19.01.2017 10:00:00 -5,9 -9,2 -6,8 -3,7 0,5 3,8 8 4 20 11 N 1037,0 12 60 0,0
19.01.2017 09:00:00 -6,9 -9,2 -8,2 -4,0 0,5 3,8 7 4 27 14 N 1037,2 10 10 0,0
19.01.2017 08:00:00 -7,0 -9,2 -8,0 -4,0 0,5 3,9 16 9 32 17 NNO 1036,9 10 0 0,0
19.01.2017 07:00:00 -7,0 -9,0 -8,1 -3,9 0,6 3,9 14 8 25 13 NNO 1036,8 10 0 0,0
19.01.2017 06:00:00 -6,8 -8,6 -8,3 -3,8 0,6 3,9 10 6 27 15 NNO 1036,7 9 0 0,0
19.01.2017 05:00:00 -6,7 -8,5 -8,3 -3,6 0,6 3,9 6 3 28 15 N 1036,6 9 0 0,0
19.01.2017 04:00:00 -6,4 -8,5 -7,7 -3,5 0,6 3,9 14 7 29 16 NO 1036,6 11 0 0,0
19.01.2017 03:00:00 -6,2 -8,2 -7,2 -3,4 0,7 3,9 18 10 31 17 NO 1036,3 10 0 0,0
19.01.2017 02:00:00 -6,1 -8,2 -7,5 -3,2 0,7 3,9 16 9 34 18 NO 1036,5 10 0 0,0
19.01.2017 01:00:00 -5,7 -7,8 -6,8 -3,0 0,7 3,9 22 12 35 19 NO 1036,7 10 0 0,0
19.01.2017 00:00:00 -5,4 -7,7 -6,4 -2,8 0,7 3,9 23 13 36 19 NO 1037,1 11 0 0,0
18.01.2017 23:00:00 -5,1 -7,7 -6,1 -2,5 0,7 3,9 26 14 41 22 NO 1036,9 11 0 0,0
18.01.2017 22:00:00 -4,7 -7,7 -5,7 -2,2 0,7 3,9 29 16 40 21 NO 1037,0 13 0 0,0
18.01.2017 21:00:00 -4,5 -7,7 -5,4 -1,8 0,8 3,9 28 15 39 21 NO 1036,9 13 0 0,0
18.01.2017 20:00:00 -4,1 -7,5 -5,1 -1,2 0,8 3,9 26 14 37 20 NO 1037,1 15 0 0,0
18.01.2017 19:00:00 -3,9 -7,4 -4,9 -0,4 0,8 4,0 25 13 37 20 NO 1037,1 15 0 0,0
18.01.2017 18:00:00 -3,6 -7,1 -4,3 -0,2 0,8 4,0 24 13 41 22 NO 1037,2 16 3 0,0
18.01.2017 17:00:00 -3,0 -6,9 -3,3 -0,1 0,8 4,0 32 17 45 25 NO 1037,0 16 60 0,0
18.01.2017 16:00:00 -2,2 -6,8 -1,7 -0,1 0,8 4,0 31 17 43 23 NO 1036,8 19 60 0,0
18.01.2017 15:00:00 -2,1 -6,8 -0,1 -0,1 0,8 4,0 28 15 40 22 NO 1036,7 20 60 0,0
18.01.2017 14:00:00 -2,2 -7,0 0,7 -0,2 0,8 4,0 22 12 35 19 NNO 1037,0 15 60 0,0
18.01.2017 13:00:00 -2,6 -7,1 0,2 -0,5 0,8 4,0 22 12 32 18 NO 1037,7 25 60 0,0
18.01.2017 12:00:00 -3,6 -7,4 -1,6 -0,9 0,8 4,0 23 13 36 20 NO 1038,0 15 60 0,0
18.01.2017 11:00:00 -4,7 -7,8 -3,8 -1,8 0,8 4,0 22 12 34 18 NO 1038,3 15 60 0,0
18.01.2017 10:00:00 -6,0 -8,3 -6,8 -3,2 0,8 4,0 23 13 34 19 NO 1038,4 15 60 0,0
18.01.2017 09:00:00 -6,7 -8,4 -7,8 -3,4 0,9 4,0 24 13 35 19 NNO 1038,4 12 3 0,0
18.01.2017 08:00:00 -6,5 -8,4 -7,3 -3,3 0,9 4,0 26 14 37 20 NNO 1038,0 14 0 0,0
18.01.2017 07:00:00 -6,3 -8,1 -7,3 -3,1 0,9 4,0 25 14 38 20 NNO 1037,5 15 0 0,0
18.01.2017 06:00:00 -6,0 -7,9 -7,0 -2,9 0,9 4,0 24 13 35 19 NNO 1037,3 15 0 0,0
18.01.2017 05:00:00 -6,2 -7,8 -7,2 -2,7 1,0 4,0 21 11 29 16 NNO 1037,6 13 0 0,0
18.01.2017 04:00:00 -6,3 -8,0 -7,3 -2,7 1,0 4,1 21 12 31 17 NO 1037,7 14 0 0,0
18.01.2017 03:00:00 -6,2 -7,9 -7,3 -2,6 1,0 4,1 23 12 32 17 NO 1037,8 14 0 0,0
18.01.2017 02:00:00 -5,8 -7,7 -7,0 -2,4 1,0 4,1 21 11 29 15 NO 1037,8 15 0 0,0
18.01.2017 01:00:00 -5,8 -7,6 -7,1 -2,2 1,1 4,1 17 9 27 14 NO 1038,0 14 0 0,0
18.01.2017 00:00:00 -5,5 -7,2 -6,7 -2,1 1,1 4,1 19 10 31 17 NO 1037,7 12 0 0,0
17.01.2017 23:00:00 -5,2 -6,8 -6,5 -1,9 1,1 4,1 19 11 28 15 NNO 1037,5 11 0 0,0
17.01.2017 22:00:00 -5,1 -6,5 -6,6 -1,6 1,1 4,1 18 10 33 18 NNO 1037,4 11 0 0,0
17.01.2017 21:00:00 -4,6 -6,4 -5,7 -1,3 1,1 4,1 21 11 31 17 NNO 1037,5 12 0 0,0
17.01.2017 20:00:00 -4,4 -6,4 -5,8 -0,9 1,2 4,1 16 9 23 12 NNO 1037,1 14 0 0,0
17.01.2017 19:00:00 -3,7 -6,3 -5,0 -0,3 1,2 4,1 15 8 29 16 NO 1036,8 19 0 0,0
17.01.2017 18:00:00 -3,1 -6,5 -4,1 -0,1 1,2 4,1 20 11 33 18 NO 1036,4 26 0 0,0
17.01.2017 17:00:00 -2,4 -6,5 -3,3 -0,1 1,2 4,1 22 12 34 18 NO 1035,9 28 44 0,0
17.01.2017 16:00:00 -1,5 -6,4 -1,0 -0,1 1,2 4,1 21 11 41 22 NO 1035,8 27 45 0,0
17.01.2017 15:00:00 -1,8 -6,8 -1,4 -0,2 1,2 4,1 22 12 35 19 NO 1035,5 31 43 0,0
17.01.2017 14:00:00 -2,0 -6,6 -1,2 -0,3 1,2 4,1 19 11 30 16 NO 1035,7 35 29 0,0
17.01.2017 13:00:00 -2,0 -6,4 -0,8 -0,4 1,2 4,2 13 7 32 18 NNO 1036,2 33 31 0,0
17.01.2017 12:00:00 -2,2 -6,9 -0,3 -0,5 1,2 4,2 11 6 21 11 ONO 1036,0 27 22 0,0
17.01.2017 11:00:00 -3,2 -6,8 -3,1 -0,8 1,2 4,2 11 6 24 13 NO 1036,3 25 60 0,0
17.01.2017 10:00:00 -4,6 -6,8 -5,6 -1,3 1,2 4,2 15 8 25 13 NO 1036,3 15 26 0,0
17.01.2017 09:00:00 -5,4 -7,0 -6,4 -1,2 1,3 4,2 14 7 21 12 NNO 1036,0 13 3 0,0
17.01.2017 08:00:00 -5,2 -6,8 -5,4 -1,1 1,3 4,2 13 7 32 17 NO 1035,7 12 0 0,0
17.01.2017 07:00:00 -5,7 -7,4 -6,2 -1,1 1,3 4,2 18 10 35 19 NO 1035,1 16 0 0,0
17.01.2017 06:00:00 -6,1 -7,5 -6,0 -1,1 1,3 4,2 16 9 40 22 ONO 1034,8 12 0 0,0
17.01.2017 05:00:00 -6,1 -7,3 -6,5 -1,1 1,3 4,2 18 10 33 18 NO 1034,1 10 0 0,0
17.01.2017 04:00:00 -5,5 -6,4 -5,7 -1,0 1,4 4,2 15 8 27 14 NO 1033,7 7 0 0,0
17.01.2017 03:00:00 -6,0 -6,7 -7,0 -0,9 1,4 4,2 11 6 19 10 NNO 1033,5 7 0 0,0
17.01.2017 02:00:00 -5,9 -6,5 -7,6 -0,8 1,4 4,2 12 6 17 9 NNO 1032,8 7 0 0,0
17.01.2017 01:00:00 -6,2 -6,6 -8,0 -0,6 1,4 4,2 5 3 17 9 N 1032,8 6 0 0,0
17.01.2017 00:00:00 -6,2 -7,1 -7,8 -0,4 1,5 4,2 12 6 18 10 NNO 1032,4 8 0 0,0
16.01.2017 23:00:00 -4,6 -5,6 -6,6 -0,2 1,5 4,2 12 6 23 13 NNO 1031,8 11 0 0,0
16.01.2017 22:00:00 -4,1 -5,2 -5,6 -0,1 1,5 4,2 12 7 19 10 NNO 1031,3 10 0 0,0
16.01.2017 21:00:00 -3,8 -5,0 -6,5 0,0 1,5 4,2 8 4 16 9 NO 1030,3 11 0 0,0
16.01.2017 20:00:00 -3,6 -4,8 -6,9 0,1 1,5 4,2 10 5 15 8 NO 1029,8 12 0 0,0
16.01.2017 19:00:00 -2,8 -4,8 -5,2 0,2 1,6 4,2 10 6 18 10 NO 1029,1 15 0 0,0
16.01.2017 18:00:00 -2,4 -5,3 -5,0 0,2 1,6 4,2 9 5 18 10 NO 1028,5 26 1 0,0
16.01.2017 17:00:00 -0,9 -5,0 -3,1 0,4 1,6 4,2 11 6 20 11 NO 1027,9 29 60 0,0
16.01.2017 16:00:00 0,1 -4,7 -0,2 0,7 1,6 4,2 17 9 30 16 NO 1027,3 29 57 0,0
16.01.2017 15:00:00 0,0 -3,6 -0,6 0,6 1,6 4,2 8 4 20 11 NNO 1027,0 24 29 0,0
16.01.2017 14:00:00 -0,4 -2,6 -0,7 0,1 1,6 4,2 14 8 23 13 NNO 1026,9 16 27 0,0
16.01.2017 13:00:00 -1,3 -2,1 0,0 0,1 1,6 4,2 7 4 11 6 NNO 1027,0 7 34 0,0
16.01.2017 12:00:00 -2,0 -2,2 -1,7 0,1 1,6 4,2 7 4 10 5 NNO 1027,1 4,3 0 0,0
16.01.2017 11:00:00 -2,6 -3,0 -2,0 0,1 1,6 4,2 3 2 6 3 NNO 1026,9 5 0 0,0
16.01.2017 10:00:00 -3,2 -3,5 -2,7 0,1 1,6 4,2 3 2 6 3 N 1026,4 3,3 0 0,0
16.01.2017 09:00:00 -3,8 -4,0 -3,5 0,1 1,6 4,2 4 2 6 3 Z 1026,1 2,3 0 0,0
16.01.2017 08:00:00 -3,9 -4,0 -3,5 0,1 1,7 4,2 2 1 7 4 O 1025,9 0,2 0 0,0
16.01.2017 07:00:00 -3,8 -4,0 -3,3 0,1 1,7 4,2 4 2 9 5 NO 1025,2 0,3 0 0,0
16.01.2017 06:00:00 -3,9 -4,0 -3,9 0,1 1,7 4,2 4 2 8 5 OZO 1025,0 0,2 0 0,0
16.01.2017 05:00:00 -3,3 -3,3 -3,3 0,1 1,7 4,2 6 3 11 6 NO 1025,0 0,2 0 0,0
16.01.2017 04:00:00 -2,8 -3,0 -4,8 0,2 1,8 4,2 9 5 15 8 NNO 1024,6 4,9 0 0,0
16.01.2017 03:00:00 -2,7 -3,0 -4,9 0,2 1,8 4,3 8 5 16 9 NNO 1024,4 5 0 0,0
16.01.2017 02:00:00 -2,0 -2,4 -2,8 0,3 1,8 4,3 12 6 17 9 NNO 1024,3 8 0 0,0
16.01.2017 01:00:00 -1,7 -2,2 -2,7 0,3 1,8 4,3 9 5 13 7 NNO 1024,1 8 0 0,0
16.01.2017 00:00:00 -1,3 -2,1 -1,9 0,3 1,9 4,3 4 2 7 4 O 1024,1 9 0 0,0
15.01.2017 23:00:00 -1,0 -1,7 -3,0 0,4 1,9 4,3 4 2 7 4 ONO 1023,9 9 0 0,0
15.01.2017 22:00:00 -0,6 -1,6 -2,8 0,4 2,0 4,3 5 3 7 4 ZZW 1023,5 13 0 0,0
15.01.2017 21:00:00 -0,1 -1,4 -2,1 0,6 2,0 4,3 5 3 8 4 ZW 1023,3 13 0 0,0
15.01.2017 20:00:00 0,4 -1,4 -0,1 0,8 2,0 4,3 7 4 11 6 WZW 1023,4 18 0 0,0
15.01.2017 19:00:00 0,4 -1,9 -0,5 0,9 2,0 4,3 3 2 9 5 Z 1023,0 25 0 0,0
15.01.2017 18:00:00 0,8 -2,1 0,1 1,1 2,0 4,3 5 3 7 4 ZW 1022,7 19 0 0,1

tt = temperatuur
td = dauwpunt
tt 5cm = temperatuur 5cm
tt -5cm = temperatuur -5cm
tt -20cm = temperatuur -20cm
tt -100cm = temperatuur -100cm
ff = windsnelheid
fx = windstoten
dd = windrichting
ppp = luchtdruk
vv = zicht
sd = Zonneschijnduur
rr = neerslag

Weerstations in de omgeving